This is the latest recevied weather packets stored in our database for station/object DB0HRH-10. If no packets are shown the sender has not sent any weather packets the latest 10 day(s).
| Time | Temp. | Humidity | Pressure | Rain* | Wind** | Luminosity | Snow |
|---|---|---|---|---|---|---|---|
| 1777493824 | 13.89° C | 33% | 1024.5 hPa | - | - | - | - |
| 1777492924 | 14.44° C | 34% | 1024.5 hPa | - | - | - | - |
| 1777492024 | 14.44° C | 34% | 1024.3 hPa | - | - | - | - |
| 1777491124 | 15° C | 34% | 1024.2 hPa | - | - | - | - |
| 1777490224 | 15° C | 34% | 1024 hPa | - | - | - | - |
| 1777489324 | 15.56° C | 34% | 1023.8 hPa | - | - | - | - |
| 1777488424 | 15.56° C | 33% | 1023.6 hPa | - | - | - | - |
| 1777487524 | 16.11° C | 32% | 1023.4 hPa | - | - | - | - |
| 1777486624 | 16.67° C | 31% | 1023.4 hPa | - | - | - | - |
| 1777485724 | 17.22° C | 30% | 1023.2 hPa | - | - | - | - |
| 1777484824 | 17.22° C | 29% | 1023 hPa | - | - | - | - |
| 1777483923 | 17.22° C | 29% | 1022.9 hPa | - | - | - | - |
| 1777483023 | 17.22° C | 28% | 1022.7 hPa | - | - | - | - |
| 1777482123 | 17.78° C | 29% | 1022.6 hPa | - | - | - | - |
| 1777481223 | 17.78° C | 29% | 1022.7 hPa | - | - | - | - |
| 1777480323 | 18.33° C | 28% | 1022.7 hPa | - | - | - | - |
| 1777479423 | 18.33° C | 29% | 1022.6 hPa | - | - | - | - |
| 1777478523 | 18.33° C | 28% | 1022.7 hPa | - | - | - | - |
| 1777477623 | 18.89° C | 29% | 1022.6 hPa | - | - | - | - |
| 1777476723 | 18.89° C | 31% | 1022.6 hPa | - | - | - | - |
| 1777475823 | 18.89° C | 31% | 1022.5 hPa | - | - | - | - |
| 1777474923 | 18.89° C | 31% | 1022.5 hPa | - | - | - | - |
| 1777474023 | 19.44° C | 30% | 1022.4 hPa | - | - | - | - |
| 1777473123 | 20° C | 31% | 1022.3 hPa | - | - | - | - |
| 1777472222 | 20° C | 30% | 1022.4 hPa | - | - | - | - |
* Rain since midnight (hover to see other rain measurements)
** Current wind speed in m/s (hover to see current wind gust speed)